Location: De Har
(53.3413°N, 6.6858°E)
Time: 20:58:30
(UTC+00:00)

Cosmos 540 Rocket - Pass Details

Date: 22 April 2026
Orbit: 735 x 747 km, 74.1° (Epoch: 21 May)

Event Time Altitude Azimuth Distance (km) Brightness Sun altitude
Exits shadow 02:41:22 18° 211° (SSW) 1,786 4.8 -13.1°
Maximum altitude 02:45:16 79° 297° (WNW) 768 3.4 -12.6°
Drops below altitude 10° 02:50:26 10° 24° (NNE) 2,278 7.1 -12.0°
Sets 02:52:49 0° 26° (NNE) 3,206 8.1 -11.8°
